Vertical_Velocity
-1 -1 -0 -2 -4 -3 -2 -2 -2 1 1 -0 -2 -1 -1 -4 2 3 2 5 5 3 3 2 0 2 3 -2 3 -1 4 3 1 -4 1 1 1 -4 2 -1 2 4 3
-3 1 3 1 -4 -2 -0 -4 0 -0 1 1 -0 0 -1 -4 -4 -3 1 3 -2 -3 -4 -0 3 2 -2 2 2 1 -0 2 0 -1 -0 -0 3 4 -2 -3 -1 2 -0
2 1 2 0 -1 -1 -1 -1 -0 -0 -1 -2 1 -1 0 -1 2 -5 3 3 4 -3 4 -3 -1 2 3 2 -0 0 -2 -2 -1 -0 -1 -0 3 2 5 2 -3 2 0
2 1 2 1 -0 -1 -2 -0 -1 -1 -1 -1 -1 -1 -2 1 0 -3 -1 -1 -2 -7 -4 3 5 1 0 -2 -2 -2 -2 -1 -1 0 1 0 0 -3 0 -6 2 6 -4
-2 2 -1 1 1 -2 1 -1 -0 -1 -1 -0 -1 1 -1 -2 1 2 1 -0 1 -4 3 5 -2 -2 3 -1 0 -3 -2 -1 -2 -3 -1 -2 -2 -2 -13 -8 2 -1 0
2 -1 -0 1 -1 -2 1 -1 -2 0 2 -1 -1 -1 1 -2 1 0 2 -2 1 -1 -4 -3 0 1 0 -0 -0 2 -4 -3 -3 1 -0 -2 -3 -2 -2 -3 -2 -12 -22
-0 0 -0 1 -0 -0 -0 -2 -0 1 -0 -0 -0 0 -0 -1 -1 -2 -5 -3 -6 -3 -1 2 1 -3 2 2 1 1 -1 -4 -1 2 -1 -2 -1 -0 1 -3 -2 1 -1
-1 -1 -1 0 0 -0 -1 -0 -0 -0 -0 0 -2 -0 -1 -2 -0 0 0 -1 -2 0 -1 -0 3 -4 -2 0 4 1 1 -1 -1 -4 1 -1 1 -1 1 -0 -1 -1 3
1 -2 0 1 0 -1 -0 -0 -0 -1 -0 -2 -1 -1 -1 -4 -1 -0 1 1 -1 -1 -1 -2 0 -1 -2 1 1 0 5 1 1 1 2 1 4 1 -1 2 -7 -9 -9
-4 -1 2 1 0 -1 0 -0 0 0 -1 -0 -1 -1 -0 -2 -1 -1 2 -0 1 1 0 -0 -4 -3 -0 -2 -0 -0 -0 -3 -2 1 2 4 3 1 1 2 2 -2 0
-3 -0 2 -0 0 -0 0 -1 -0 1 -0 -1 -2 -2 -0 -0 -1 -0 0 -0 -3 -1 -4 -4 -3 -2 0 -1 -0 -4 -6 -0 -0 -5 -1 0 0 3 4 3 2 -1 -4
-3 2 -0 0 0 -1 1 0 2 1 1 -1 -1 -1 -1 -0 0 -1 -2 -2 -1 -4 -4 -2 -0 -2 -1 -2 -0 1 -1 -0 0 -4 -2 -6 -5 -6 -3 -2 2 6 7
0 0 0 1 1 -1 -1 -0 -1 -0 -0 -1 -1 -1 -2 -2 -2 -2 -4 -2 -3 -3 -2 -2 -2 -3 -2 0 -2 -4 -3 -5 -6 -7 -7 -4 -3 -2 -2 -3 -1 -2 2
-0 0 2 1 -2 1 2 1 1 1 -0 -0 -1 -1 1 1 0 -1 -1 -1 -0 0 1 1 1 2 2 1 0 -0 -3 -4 -6 -5 -3 -1 2 -3 -5 -5 -8 -10 -9
1 -0 -0 0 -1 2 1 1 1 -0 0 0 -0 1 1 -1 -2 -2 -0 -1 -2 -2 -1 -2 -4 -5 -6 -5 -4 -4 -4 -3 -3 -3 -4 -4 -6 -6 -6 -5 -4 -5 -4
0 1 1 -0 -0 0 0 -2 -1 0 -2 -1 -3 1 1 2 -2 -6 0 -1 -1 -0 0 -2 -3 -4 -4 -3 -3 -2 -1 -1 -1 1 1 2 -0 -4 -6 -3 0 -1 -5
-1 -0 -1 1 -0 -2 -0 -0 -1 1 -1 -3 -0 -1 -2 -3 -1 -1 -1 -1 -1 2 -3 -2 -2 0 0 -1 -3 -3 -5 -4 -1 -2 -2 -3 -3 -1 -3 -3 -4 -3 -7
1 1 -0 1 -2 -3 -0 0 -1 -0 -2 -3 -1 -0 -1 -0 1 -0 -0 2 2 -3 -4 -3 -3 -3 -2 -3 -3 -4 -3 -2 -2 -3 -3 -2 -1 -2 -5 -5 -1 -2 -4
-2 -1 -2 0 1 2 1 1 -0 -1 0 -1 -0 1 0 1 -1 1 1 -3 -5 -3 -1 0 -2 -2 -3 -2 -1 -1 -1 -2 -2 -2 -1 -1 -1 -4 -4 -1 -1 -0 -0
1 0 -1 -1 -1 -1 -0 -0 -1 -0 1 1 -0 -0 -0 -1 -2 -1 -2 -1 -0 -2 -2 -3 -3 -2 -2 -2 -1 -0 -1 -2 -2 -0 0 -1 -2 -0 0 0 -1 -0 -2
0 -0 -0 -0 -1 -0 -1 -0 1 -0 0 -1 -1 -0 -1 -1 -2 -0 -1 -1 -2 -3 -2 -3 -2 -0 -1 -1 -0 -2 -1 -1 -1 -1 -3 -2 -0 -2 1 1 -4 -1 -4
0 -1 -1 -0 -0 -0 -0 0 -0 -0 -2 -1 -2 -1 -1 -2 -1 -1 -1 -2 -2 -3 -2 -2 -1 -1 -2 -3 -3 -1 -1 -2 -2 -2 -0 0 -1 -2 -3 -3 -7 -1 -2
-1 -2 -2 0 1 -0 -0 0 -0 -1 -0 -1 -1 -1 -1 -1 -1 -0 0 0 -1 -1 -1 -1 -1 1 0 -1 -0 -1 -2 -3 -2 -1 -1 -1 -1 -3 -2 -3 -3 -2 -4
-0 -1 1 0 -1 -0 1 0 -0 0 -0 -1 -1 -1 -1 -1 -0 0 1 1 -1 -1 -1 -1 -1 -0 -1 -1 -0 -0 -1 -1 -1 0 0 -0 -2 -2 -3 -4 -0 1 -1
-0 -2 0 0 -0 0 -1 -0 -0 0 0 -0 -1 -1 -1 -0 1 -2 1 0 0 -1 -1 -1 -1 -0 -1 -2 -1 -2 -1 0 0 -1 -0 0 -1 -1 -3 -3 3 -3 -1
-1 -0 -0 0 0 0 -0 -0 0 -1 -1 -1 -1 0 -0 1 1 -2 1 0 -0 -1 -1 -2 -2 -1 -0 -0 -1 -1 -1 -0 -1 0 0 -1 -2 -4 -1 1 -2 -1 -1
Height
1501 1500 1498 1496 1496 1497 1496 1496 1495 1494 1490 1486 1483 1482 1480 1477 1475 1473 1470 1467 1461 1458 1455 1451 1449 1446 1442 1440 1438 1436 1434 1431 1428 1425 1425 1422 1420 1414 1416 1417 1419 1418 1419
1502 1502 1499 1496 1497 1498 1497 1496 1496 1494 1490 1486 1483 1482 1480 1478 1475 1475 1470 1466 1462 1458 1456 1453 1450 1446 1443 1440 1436 1434 1431 1428 1426 1422 1420 1417 1414 1412 1410 1409 1409 1409 1410
1503 1502 1499 1497 1496 1497 1497 1496 1495 1493 1491 1487 1483 1482 1480 1478 1476 1474 1470 1466 1462 1458 1457 1453 1451 1448 1443 1439 1437 1433 1431 1428 1428 1425 1420 1415 1410 1406 1404 1404 1403 1402 1401
1502 1501 1499 1497 1495 1496 1496 1494 1493 1493 1490 1486 1483 1482 1480 1478 1476 1474 1471 1468 1463 1462 1460 1457 1450 1447 1443 1441 1438 1435 1433 1431 1428 1426 1421 1416 1409 1403 1400 1394 1393 1395 1395
1501 1500 1498 1497 1495 1495 1495 1493 1493 1492 1490 1486 1485 1483 1481 1479 1477 1474 1472 1469 1466 1465 1462 1456 1452 1450 1447 1443 1441 1438 1435 1432 1428 1426 1422 1417 1410 1403 1398 1398 1395 1391 1390
1497 1497 1497 1496 1495 1495 1494 1493 1493 1492 1489 1487 1485 1484 1481 1479 1478 1475 1473 1471 1468 1466 1463 1460 1456 1453 1450 1446 1443 1440 1437 1435 1432 1428 1424 1419 1415 1411 1407 1402 1397 1388 1387
1496 1495 1496 1495 1494 1495 1494 1493 1493 1491 1489 1488 1486 1485 1482 1480 1479 1477 1474 1472 1471 1470 1466 1462 1457 1454 1453 1450 1447 1443 1440 1437 1435 1431 1428 1423 1419 1415 1411 1405 1401 1398 1396
1493 1493 1494 1493 1494 1494 1494 1493 1492 1492 1490 1489 1488 1486 1484 1482 1481 1479 1478 1475 1474 1471 1467 1464 1459 1456 1454 1452 1449 1446 1441 1438 1434 1432 1430 1427 1423 1419 1414 1409 1405 1400 1398
1491 1492 1493 1493 1493 1493 1494 1493 1493 1492 1491 1490 1489 1488 1486 1484 1483 1481 1480 1477 1475 1471 1469 1465 1462 1460 1458 1453 1450 1446 1443 1439 1437 1435 1433 1430 1426 1421 1416 1411 1403 1399 1396
1489 1491 1492 1492 1492 1493 1494 1494 1493 1493 1492 1491 1490 1489 1488 1486 1485 1482 1481 1478 1475 1473 1470 1467 1465 1464 1460 1455 1450 1446 1442 1439 1437 1435 1432 1430 1426 1421 1417 1411 1407 1402 1398
1487 1490 1491 1492 1492 1493 1494 1494 1495 1494 1493 1492 1491 1490 1489 1487 1485 1484 1481 1478 1476 1474 1472 1470 1470 1467 1464 1459 1453 1448 1445 1444 1439 1434 1432 1427 1424 1420 1415 1412 1409 1405 1402
1486 1489 1490 1491 1492 1494 1494 1495 1495 1495 1494 1492 1492 1491 1489 1488 1486 1484 1482 1480 1479 1476 1476 1474 1472 1469 1464 1462 1456 1452 1449 1445 1441 1436 1432 1428 1423 1418 1414 1411 1409 1407 1405
1486 1488 1490 1491 1492 1493 1494 1494 1494 1494 1494 1493 1492 1491 1490 1489 1487 1486 1484 1483 1481 1479 1478 1476 1474 1470 1466 1462 1458 1454 1450 1445 1441 1437 1434 1431 1427 1423 1419 1414 1410 1406 1403
1485 1488 1490 1491 1491 1494 1494 1494 1495 1494 1494 1493 1493 1492 1491 1489 1487 1486 1486 1485 1483 1481 1479 1476 1473 1470 1466 1463 1459 1455 1451 1447 1444 1441 1438 1434 1430 1424 1418 1414 1408 1403 1398
1484 1487 1489 1490 1492 1494 1494 1494 1495 1494 1494 1494 1493 1492 1491 1488 1487 1487 1487 1486 1483 1481 1479 1476 1472 1469 1466 1463 1459 1456 1453 1449 1445 1442 1438 1433 1429 1424 1419 1416 1411 1406 1400
1483 1486 1488 1490 1492 1493 1494 1493 1494 1494 1494 1494 1493 1492 1490 1490 1488 1487 1488 1486 1483 1480 1478 1474 1471 1469 1466 1463 1459 1456 1453 1449 1446 1442 1438 1434 1429 1424 1420 1417 1412 1407 1402
1482 1485 1486 1489 1490 1491 1492 1492 1493 1493 1493 1493 1493 1492 1491 1491 1490 1487 1485 1484 1481 1479 1476 1473 1471 1469 1466 1464 1461 1458 1454 1451 1448 1444 1440 1435 1431 1426 1421 1416 1412 1407 1401
1482 1484 1486 1488 1488 1490 1491 1491 1492 1492 1492 1492 1492 1492 1491 1491 1490 1486 1484 1483 1481 1478 1476 1474 1471 1469 1467 1464 1462 1459 1456 1452 1448 1444 1440 1435 1430 1425 1421 1416 1412 1407 1401
1481 1483 1485 1487 1489 1490 1491 1491 1491 1491 1491 1491 1492 1492 1491 1490 1487 1485 1483 1482 1480 1478 1476 1474 1472 1470 1468 1465 1462 1459 1455 1451 1447 1442 1438 1433 1429 1424 1420 1416 1412 1407 1401
1480 1482 1484 1486 1487 1488 1489 1490 1490 1490 1490 1490 1490 1490 1489 1487 1486 1484 1482 1481 1479 1478 1476 1474 1472 1470 1467 1464 1461 1457 1453 1449 1445 1441 1436 1432 1428 1423 1419 1414 1410 1405 1399
1478 1480 1482 1484 1485 1486 1487 1488 1489 1488 1488 1488 1488 1487 1486 1486 1484 1483 1482 1480 1479 1477 1475 1473 1470 1468 1465 1462 1459 1455 1451 1447 1444 1440 1436 1431 1427 1422 1418 1414 1409 1405 1400
1476 1478 1480 1482 1483 1483 1485 1485 1485 1486 1486 1486 1485 1485 1484 1484 1483 1482 1481 1479 1478 1476 1474 1471 1469 1466 1463 1460 1456 1453 1449 1445 1441 1437 1433 1430 1425 1422 1418 1414 1409 1405 1400
1474 1476 1478 1480 1481 1481 1482 1483 1483 1483 1483 1483 1483 1482 1482 1481 1481 1480 1479 1477 1476 1474 1472 1470 1467 1465 1461 1458 1454 1451 1446 1443 1439 1435 1432 1428 1424 1420 1417 1413 1409 1405 1399
1472 1474 1476 1477 1478 1479 1480 1481 1481 1481 1481 1481 1481 1480 1480 1479 1479 1478 1477 1475 1474 1472 1470 1468 1465 1463 1459 1456 1453 1449 1445 1441 1438 1434 1430 1426 1423 1420 1416 1412 1408 1404 1398
1471 1471 1474 1475 1476 1476 1477 1478 1478 1479 1478 1478 1478 1478 1477 1477 1476 1475 1475 1473 1471 1470 1468 1466 1463 1460 1457 1453 1450 1447 1443 1440 1436 1432 1429 1425 1422 1419 1415 1411 1408 1402 1397
1468 1470 1471 1472 1473 1474 1474 1475 1475 1475 1476 1476 1476 1475 1475 1475 1474 1473 1472 1471 1469 1467 1466 1463 1461 1458 1454 1451 1448 1444 1441 1437 1434 1430 1426 1423 1420 1416 1413 1410 1406 1401 1395